Wind_Speed
22 21 20 19 18 17 17 15 14 14 13 12 11 10 10 10 9 9 9 8 7 7 6 6 5 5 5 5 5 5 5 5 6 6 6 6 6 7 7 7 8 8 9
23 23 21 20 20 19 18 17 16 16 15 14 13 13 12 12 11 11 11 10 10 9 8 7 7 7 7 6 6 6 7 7 7 7 7 7 8 8 8 9 9 10 10
25 24 23 22 22 21 20 20 18 17 17 16 16 15 14 14 13 13 13 12 12 11 10 9 9 9 9 8 8 8 8 8 9 9 9 9 9 10 10 10 10 11 12
26 26 25 24 24 23 22 22 21 20 19 18 18 17 16 16 15 15 14 14 14 13 13 12 11 11 11 11 10 10 10 10 10 10 11 11 11 11 11 12 12 12 13
27 27 27 26 26 25 24 23 23 22 21 20 19 19 18 18 17 17 16 15 15 14 14 14 13 13 13 13 13 13 12 12 12 12 12 12 12 13 13 13 14 14 14
28 28 28 28 27 26 26 25 24 23 22 22 21 21 20 20 19 19 18 17 17 16 16 15 15 14 15 15 15 15 15 14 14 14 14 14 15 15 15 15 15 16 16
29 29 29 29 29 28 28 27 26 25 25 24 23 23 23 22 22 21 20 19 19 18 18 17 17 16 16 16 16 17 17 16 16 16 16 16 16 17 17 17 17 18 18
31 30 30 30 29 29 29 29 28 27 27 26 26 25 25 25 24 23 22 21 21 20 20 19 19 18 18 18 18 18 18 18 18 18 18 18 18 18 19 19 19 19 19
31 30 30 30 30 30 30 30 29 29 29 28 28 27 26 26 26 25 25 24 23 23 22 22 21 21 21 21 20 20 20 20 20 19 20 20 20 20 20 20 20 20 20
31 30 30 30 30 30 30 30 30 30 30 29 29 28 28 27 27 27 26 26 26 25 25 24 24 23 23 23 22 22 22 22 22 22 22 22 22 22 22 22 22 22 22
31 31 30 30 30 31 31 31 31 31 30 30 30 30 29 29 29 28 28 28 28 28 27 27 26 25 25 24 24 24 24 24 24 24 24 24 24 23 23 23 23 23 24
33 31 31 31 32 32 32 32 32 31 31 31 31 31 31 30 30 31 30 30 30 30 29 29 28 28 27 26 26 26 26 25 25 26 26 25 25 25 25 25 25 25 25
33 32 32 32 32 33 33 33 33 33 33 33 33 33 32 33 33 32 32 32 32 31 31 31 31 30 30 29 28 27 27 27 27 27 27 27 27 27 27 27 27 27 27
33 33 32 33 33 33 33 34 34 33 33 33 34 34 34 34 34 34 34 34 34 34 33 32 32 32 32 31 30 30 30 30 29 29 28 28 28 28 27 27 28 28 28
33 33 33 33 33 33 34 34 34 35 35 35 34 34 35 35 35 36 36 36 36 35 35 35 34 33 33 33 32 32 31 31 31 30 30 29 29 29 29 29 29 30 30
34 33 33 33 33 34 34 35 35 36 35 36 36 36 36 35 35 36 36 36 36 36 36 36 36 36 35 34 34 33 33 33 32 31 32 31 31 31 31 31 31 31 32
34 34 34 34 34 35 35 35 36 37 37 36 36 36 36 35 35 35 35 36 36 36 36 36 36 36 36 36 35 35 35 35 34 34 34 34 33 33 33 33 34 33 33
34 34 35 35 35 36 36 36 36 36 36 36 36 37 36 36 35 35 35 35 36 37 37 37 37 37 37 36 36 36 36 36 36 36 36 36 36 35 36 36 36 36 36
34 34 35 35 35 36 37 37 37 37 37 38 37 36 37 37 36 36 36 36 36 36 38 38 38 38 38 38 37 37 37 37 37 37 37 37 38 38 38 38 38 38 38
34 34 34 34 35 37 37 38 39 39 39 39 39 38 37 37 37 37 38 38 38 37 38 39 39 39 39 39 38 38 38 38 38 38 39 39 39 39 39 39 38 39 39
33 34 34 35 35 36 37 37 37 38 39 39 39 39 38 38 38 38 38 39 39 39 38 38 39 39 39 39 40 39 39 40 40 40 40 40 41 41 41 41 39 39 39
34 34 35 36 36 36 37 37 37 37 38 39 39 39 39 38 38 38 38 38 38 38 38 38 39 39 39 40 40 40 40 40 41 41 41 42 42 42 42 41 40 40 40
33 34 35 36 37 37 37 38 39 39 38 38 38 39 39 40 40 39 39 38 38 38 38 38 38 38 39 39 40 40 40 40 41 41 41 42 42 43 43 42 41 41 41
33 34 35 36 37 37 38 39 40 40 40 40 40 40 40 40 40 39 39 39 38 38 38 38 38 39 39 40 40 41 41 41 41 41 41 41 41 42 42 42 41 41 41
32 32 33 33 35 36 37 38 39 39 40 39 40 40 39 39 40 39 38 37 37 38 38 38 38 39 40 40 40 40 40 41 41 41 40 40 41 41 41 41 40 40 41
31 31 32 33 34 35 37 37 38 38 38 38 38 38 38 38 38 39 39 38 38 38 38 38 39 39 40 40 40 40 41 41 41 40 40 40 40 39 40 40 39 40 40
Wind_Direction
237 238 239 240 240 241 241 240 238 237 237 238 237 237 236 235 234 232 233 234 236 238 240 240 242 243 247 254 261 265 268 273 278 281 284 287 291 295 298 300 304 308 309
237 238 239 239 240 241 242 242 241 239 240 242 243 243 242 242 243 242 241 241 242 243 246 246 248 250 253 259 264 267 269 273 277 282 285 288 291 294 296 298 300 301 303
238 238 239 239 240 241 242 243 244 243 242 244 245 245 246 246 247 248 247 248 248 248 249 251 253 256 257 261 266 269 272 275 276 279 283 287 290 292 294 296 298 299 299
239 239 240 241 241 242 243 244 245 246 246 246 246 246 247 248 249 250 252 253 253 253 253 253 255 260 262 264 267 271 274 276 278 279 281 284 286 289 291 292 294 296 298
239 239 240 242 242 243 244 244 245 247 248 248 247 247 248 250 251 251 253 254 255 256 256 256 257 261 263 264 266 270 274 276 278 280 281 283 284 286 289 291 292 294 295
239 240 241 242 243 244 245 244 245 246 247 249 249 249 251 251 252 253 254 255 257 259 259 259 261 263 264 266 269 271 272 274 277 279 281 282 283 284 287 289 291 292 293
239 240 241 243 244 244 245 246 246 247 248 249 250 252 252 252 252 253 254 256 257 260 261 262 263 265 268 269 271 272 273 273 275 277 279 281 283 284 285 287 289 291 292
239 240 241 242 243 244 245 247 248 249 250 251 251 252 252 253 253 253 254 255 257 259 261 262 264 266 268 271 272 273 273 274 276 277 279 281 283 284 285 287 288 289 289
239 239 241 241 242 244 246 247 249 250 251 253 252 252 252 252 253 254 255 256 257 260 261 262 265 268 269 271 272 274 274 275 277 278 280 281 282 284 285 286 287 288 288
238 239 241 242 243 245 247 248 249 251 252 253 253 252 252 254 255 255 256 257 258 259 261 262 265 268 269 270 272 273 274 276 277 278 279 280 282 282 283 285 286 287 288
239 240 241 242 244 246 247 249 250 251 252 253 253 254 255 255 257 257 258 259 259 259 261 262 264 266 268 270 271 272 273 275 276 279 279 280 281 282 284 285 286 286 287
241 241 242 243 244 246 247 249 250 251 252 252 253 255 257 257 257 258 259 260 261 261 261 261 263 265 267 268 270 270 272 273 276 278 279 279 280 282 283 283 284 286 287
241 242 242 244 245 246 248 249 250 252 253 253 254 255 257 258 259 259 259 259 260 261 262 262 262 264 265 267 268 269 271 272 274 276 278 279 280 281 281 282 283 285 286
241 242 242 244 245 246 248 249 250 251 253 255 255 256 257 258 260 260 260 260 261 261 261 262 262 263 265 266 268 268 270 272 274 276 277 278 279 281 282 282 283 284 285
242 242 243 244 246 247 248 250 251 251 252 254 255 256 257 258 260 260 259 260 260 260 260 260 261 262 263 265 267 268 269 271 274 275 276 277 279 281 282 283 284 284 284
243 244 245 246 248 249 250 251 252 253 253 255 256 258 259 259 260 261 260 260 259 260 260 260 260 261 262 264 265 267 268 270 272 274 275 277 279 280 282 282 283 285 285
245 247 247 249 250 250 251 251 252 252 253 255 257 258 259 259 259 260 261 260 259 260 260 261 261 261 263 263 264 266 268 270 271 273 275 276 278 280 281 282 283 284 284
247 249 250 251 251 251 251 251 252 253 254 256 258 259 260 259 259 260 262 262 261 260 260 261 261 262 263 264 265 266 268 269 271 273 275 277 278 279 281 283 283 283 284
248 249 250 251 251 251 251 251 252 254 256 257 257 259 259 258 258 259 261 262 262 262 261 261 261 262 263 264 265 266 268 269 271 273 275 277 278 280 281 283 283 283 283
247 249 250 251 252 252 253 253 253 255 256 257 257 258 259 259 258 259 261 262 263 263 263 262 261 262 263 263 264 265 267 268 271 273 275 276 276 279 280 281 282 282 283
250 251 253 253 254 254 254 254 254 256 256 256 257 259 260 260 260 260 262 262 263 263 262 262 262 262 262 262 263 264 266 268 270 272 275 276 276 277 278 280 280 281 281
253 254 256 256 255 256 256 256 257 258 257 257 257 259 260 260 261 262 262 263 263 263 262 261 262 262 262 262 263 264 266 268 270 272 273 277 278 277 277 277 278 280 280
255 256 257 257 257 257 257 258 259 260 260 259 259 260 260 261 262 263 264 264 264 264 262 260 261 261 262 262 262 265 267 268 271 272 275 277 278 277 277 277 278 279 279
259 259 258 259 259 259 260 260 260 260 261 261 261 261 261 262 262 263 263 263 264 265 264 262 261 262 262 262 263 265 267 269 272 273 275 277 278 278 277 277 277 277 278
260 260 261 261 261 260 261 262 261 261 261 262 261 261 262 263 263 263 264 263 264 264 264 264 263 263 263 263 263 265 267 270 271 274 275 276 278 278 277 276 277 277 278
262 262 262 262 263 262 262 262 261 261 262 262 262 262 263 264 265 265 265 264 264 264 265 264 264 264 265 265 265 266 268 270 272 274 275 275 277 278 278 277 278 278 277
Height
5852 5854 5856 5858 5859 5861 5863 5864 5865 5866 5867 5868 5869 5870 5870 5871 5872 5873 5873 5874 5874 5875 5875 5875 5876 5876 5876 5876 5877 5877 5877 5877 5877 5877 5877 5877 5877 5877 5876 5876 5876 5875 5875
5849 5851 5853 5855 5857 5858 5860 5862 5863 5864 5865 5866 5867 5868 5869 5870 5870 5871 5872 5872 5873 5873 5874 5874 5875 5875 5875 5875 5876 5876 5876 5876 5876 5876 5876 5876 5876 5875 5875 5875 5874 5874 5873
5845 5847 5849 5851 5853 5855 5857 5859 5860 5862 5863 5864 5865 5866 5867 5868 5868 5869 5870 5871 5871 5872 5872 5873 5873 5874 5874 5874 5874 5875 5875 5875 5875 5875 5875 5874 5874 5874 5874 5873 5873 5872 5872
5840 5843 5846 5848 5850 5852 5854 5855 5857 5859 5860 5861 5862 5863 5864 5865 5866 5867 5868 5869 5869 5870 5871 5871 5872 5872 5873 5873 5873 5873 5873 5873 5873 5873 5873 5873 5873 5872 5872 5871 5871 5870 5870
5836 5839 5841 5844 5846 5848 5850 5852 5853 5855 5857 5858 5859 5861 5862 5863 5864 5865 5865 5866 5867 5868 5869 5869 5870 5870 5870 5871 5871 5871 5871 5871 5871 5871 5871 5871 5871 5870 5870 5869 5869 5868 5868
5831 5834 5837 5839 5842 5844 5846 5848 5850 5851 5853 5855 5856 5857 5858 5859 5860 5862 5863 5864 5864 5865 5866 5867 5867 5868 5868 5868 5868 5869 5869 5869 5869 5869 5869 5869 5868 5868 5867 5867 5866 5866 5865
5826 5829 5832 5834 5837 5839 5842 5844 5845 5847 5849 5851 5852 5854 5855 5856 5857 5858 5859 5860 5861 5862 5863 5864 5864 5865 5865 5865 5866 5866 5866 5866 5866 5866 5866 5866 5866 5865 5865 5864 5863 5863 5862
5821 5824 5826 5829 5832 5834 5837 5839 5841 5842 5844 5846 5848 5849 5851 5852 5853 5854 5855 5856 5858 5858 5859 5860 5861 5861 5862 5862 5862 5862 5862 5863 5863 5863 5863 5863 5862 5862 5861 5861 5860 5859 5859
5816 5819 5821 5824 5827 5829 5832 5834 5836 5838 5839 5841 5843 5844 5846 5847 5849 5850 5851 5852 5854 5854 5855 5856 5857 5857 5858 5858 5858 5859 5859 5859 5859 5859 5859 5859 5859 5858 5858 5857 5857 5856 5855
5810 5813 5816 5819 5822 5824 5827 5829 5831 5833 5834 5836 5837 5839 5841 5842 5844 5845 5846 5848 5849 5850 5851 5852 5852 5853 5854 5854 5854 5855 5855 5855 5855 5855 5855 5855 5855 5854 5854 5853 5853 5852 5851
5805 5808 5811 5814 5816 5819 5821 5823 5825 5827 5829 5831 5832 5834 5835 5837 5838 5840 5841 5842 5844 5845 5845 5846 5847 5848 5849 5849 5850 5850 5850 5851 5851 5851 5851 5850 5850 5850 5849 5849 5848 5848 5847
5799 5803 5805 5808 5811 5813 5815 5817 5819 5821 5823 5825 5827 5828 5830 5831 5833 5834 5835 5836 5838 5839 5840 5841 5842 5843 5843 5844 5844 5845 5845 5846 5846 5846 5846 5845 5845 5845 5844 5844 5843 5843 5842
5793 5796 5799 5802 5805 5807 5809 5811 5813 5815 5817 5819 5820 5822 5823 5825 5826 5827 5828 5830 5831 5833 5834 5835 5836 5837 5837 5838 5839 5839 5840 5840 5840 5841 5840 5840 5840 5840 5839 5839 5838 5838 5837
5788 5791 5793 5796 5798 5800 5803 5805 5807 5809 5811 5812 5814 5815 5817 5818 5819 5820 5821 5823 5824 5825 5827 5828 5829 5830 5831 5832 5833 5833 5834 5834 5835 5835 5835 5834 5834 5834 5834 5833 5833 5832 5831
5782 5785 5787 5789 5792 5794 5796 5798 5800 5802 5803 5805 5806 5808 5809 5811 5812 5813 5814 5815 5816 5818 5819 5821 5822 5823 5824 5825 5826 5827 5827 5828 5828 5829 5829 5828 5828 5828 5828 5827 5827 5826 5825
5776 5779 5781 5783 5785 5787 5789 5791 5793 5794 5796 5798 5799 5800 5801 5803 5804 5805 5806 5807 5808 5810 5811 5813 5814 5816 5817 5818 5819 5820 5820 5821 5821 5822 5822 5822 5822 5822 5821 5821 5820 5819 5818
5770 5772 5774 5776 5778 5780 5782 5784 5785 5787 5788 5790 5791 5793 5794 5795 5796 5797 5798 5799 5800 5802 5803 5805 5806 5808 5809 5810 5811 5812 5813 5814 5814 5815 5815 5815 5815 5815 5814 5814 5813 5812 5811
5764 5766 5768 5769 5770 5772 5774 5776 5777 5779 5780 5782 5783 5785 5786 5787 5788 5789 5790 5791 5792 5794 5795 5797 5798 5800 5801 5802 5803 5804 5805 5806 5807 5807 5807 5808 5807 5807 5807 5807 5806 5805 5804
5757 5759 5761 5762 5763 5765 5766 5768 5769 5771 5773 5774 5775 5776 5778 5779 5780 5781 5782 5784 5784 5786 5787 5789 5790 5791 5793 5794 5795 5796 5797 5798 5799 5799 5800 5800 5799 5799 5799 5799 5798 5797 5796
5750 5752 5753 5755 5756 5757 5758 5759 5761 5763 5764 5766 5767 5768 5769 5771 5772 5773 5775 5776 5777 5778 5779 5780 5781 5782 5784 5785 5787 5788 5789 5790 5791 5791 5791 5791 5791 5791 5791 5790 5790 5789 5788
5744 5745 5747 5747 5748 5749 5750 5751 5752 5754 5756 5757 5758 5760 5761 5763 5764 5765 5766 5767 5768 5769 5770 5771 5772 5773 5775 5776 5778 5780 5781 5781 5782 5782 5782 5782 5782 5782 5782 5781 5781 5780 5779
5738 5739 5740 5740 5741 5742 5742 5743 5745 5746 5747 5748 5750 5751 5753 5754 5755 5756 5758 5759 5760 5760 5761 5762 5763 5764 5766 5767 5769 5770 5772 5774 5773 5773 5773 5773 5773 5772 5772 5772 5772 5771 5770
5731 5732 5732 5733 5733 5734 5735 5736 5737 5738 5739 5740 5741 5742 5744 5745 5746 5747 5749 5750 5751 5752 5752 5753 5754 5755 5757 5758 5759 5761 5763 5764 5764 5765 5764 5764 5763 5763 5763 5762 5762 5761 5761
5724 5724 5725 5725 5726 5726 5727 5728 5729 5730 5731 5731 5732 5733 5735 5736 5737 5738 5739 5741 5742 5743 5744 5745 5745 5746 5748 5749 5750 5751 5753 5754 5755 5756 5756 5755 5754 5753 5753 5753 5752 5752 5751
5717 5717 5718 5718 5718 5718 5719 5719 5720 5721 5722 5723 5723 5725 5726 5727 5728 5729 5730 5732 5733 5734 5734 5735 5737 5737 5738 5740 5741 5742 5743 5744 5744 5745 5746 5746 5744 5744 5743 5743 5742 5742 5741
5710 5710 5710 5710 5710 5710 5710 5710 5711 5712 5713 5714 5715 5716 5717 5719 5720 5721 5721 5723 5724 5725 5725 5726 5727 5728 5729 5730 5731 5732 5733 5734 5735 5735 5735 5735 5735 5734 5733 5733 5732 5732 5731